Regional Weather Roundup
Issued by NWS

Home | Current Version | Previous Version | Text Only | Print | Product List | Glossary Off
Versions: 1 2 3 4 5 6 7 8 9 10 11 12 13 14 15 16 17 18 19 20 21 22 23 24 25 26 27 28 29 30 31 32 33 34 35 36 37 38 39 40 41 42 43 44 45 46 47 48 49 50

000
ASUS43 KLOT 131600
RWRIL

ILLINOIS REGIONAL WEATHER ROUNDUP
NATIONAL WEATHER SERVICE CHICAGO/ROMEOVILLE IL
1100 AM CDT SUN JUL 13 2014

NOTE: "FAIR" INDICATES FEW OR NO CLOUDS BELOW 12,000 FEET WITH NO
SIGNIFICANT WEATHER AND/OR OBSTRUCTIONS TO VISIBILITY.

* THESE STATIONS ARE NOT UNDER NWS QUALITY CONTROL. THEY ALSO MAY NOT
  REPORT WEATHER SUCH AS PRECIPITATION OR FOG.

ILZ001-002-007-009-015-016-024-131700-
NORTHWEST ILLINOIS

CITY           SKY/WX    TMP DP  RH WIND       PRES   REMARKS
MOLINE         MOSUNNY   76  67  73 W5        29.98F
STERLING*      MOSUNNY   75  68  78 NW9       29.98S
$$

ILZ003-004-008-010-011-017-018-131700-
NORTH CENTRAL ILLINOIS

CITY           SKY/WX    TMP DP  RH WIND       PRES   REMARKS
ROCKFORD       MOSUNNY   75  65  70 W7        29.98S
FREEPORT*      SUNNY     71  66  83 W6        29.99S
$$

ILZ005-006-012>014-019>023-131700-
NORTHEAST ILLINOIS

CITY           SKY/WX    TMP DP  RH WIND       PRES   REMARKS
CHICAGO-OHARE  MOSUNNY   76  64  66 W9        29.94S
CHICAGO-MIDWAY PTSUNNY   75  67  76 SW9       29.94S
AURORA         MOSUNNY   74  65  73 W8        29.96F
LANSING*       CLOUDY    74  64  72 W6        29.95S
WAUKEGAN       SUNNY     76  64  66 W7        29.93R
DUPAGE AIRPORT MOSUNNY   75  66  73 W10       29.95S
WHEELING       MOSUNNY   78  63  59 NW13      29.95R HX  80
NORTHERLY ISL    N/A     74  63  68 SW6         N/A
$$

LMZ740>746-131700-
SOUTHERN LAKE MICHIGAN

STATION/POSITION SKY/WX   TEMP    WIND        PRES    VSBY  WAVE
                          AIR SEA DIR/SP/G                  HT/PER
                          (F)     (DEG/KT/KT) (MB)    (MI)  (FT/S)
SOUTHERN BUOY              65 62  250/ 10/ 12 1013.0R         1/ 4
WAUKEGAN HARBOR            74     280/  8/ 11 1014.6R
HARRISON CRIB              69     250/  8/  9   N/A
BURNHAM HARBOR             74     270/  4/ 10   N/A
CALUMET HARBOR             72     200/  5/  6 1014.8F
MICHIGAN CITY              71     260/  8/  9   N/A
$$

ILZ025>027-034>036-040-047-049-050-058-095>099-131700-
WEST-CENTRAL ILLINOIS

CITY           SKY/WX    TMP DP  RH WIND       PRES   REMARKS
QUINCY         PTSUNNY   77  69  76 N7        29.99F
GALESBURG*     CLOUDY    75  69  81 W3        30.00F
MACOMB*        PTSUNNY   72  68  87 NW8       30.02F
$$

ILZ028>032-037-038-041>044-048-051>054-059>061-131700-
CENTRAL ILLINOIS

CITY           SKY/WX    TMP DP  RH WIND       PRES   REMARKS
DECATUR        CLOUDY    77  72  84 W8        29.98R
PEORIA         PTSUNNY   77  67  71 N8        29.99R
SPRINGFIELD    CLOUDY    78  72  81 NW5       29.98R HX  80
TAYLORVILLE    NOT AVBL
$$

ILZ033-039-045-046-055>057-062-063-131700-
EAST-CENTRAL ILLINOIS

CITY           SKY/WX    TMP DP  RH WIND       PRES   REMARKS
CHAMPAIGN      CLOUDY    76  72  87 W9        29.98R
MATTOON        PTSUNNY   79  71  76 W13       29.98R HX  82
$$

ILZ079-100>102-131700-
SOUTHWEST ILLINOIS

CITY           SKY/WX    TMP DP  RH WIND       PRES   REMARKS
ALTON          MOSUNNY   84  75  74 SW7       29.99S HX  92
CAHOKIA*       PTSUNNY   85  71  63 S7        29.98F HX  90
SPARTA*        PTSUNNY   82  70  65 W6        30.02R HX  86
$$

ILZ064>066-069>071-074>076-080>082-084>086-088>090-092>094-131700-
SOUTH-CENTRAL ILLINOIS

CITY           SKY/WX    TMP DP  RH WIND       PRES   REMARKS
CARBONDALE     CLOUDY    87  72  60 S13       30.01F HX  93
MT. VERNON     MOSUNNY   88  73  62 SW12      30.00S HX  96
SALEM*         PTSUNNY   88  75  64 SW10      30.00R HX  98
$$

ILZ067-068-072-073-078-083-087-091-131700-
SOUTHEAST ILLINOIS

CITY           SKY/WX    TMP DP  RH WIND       PRES   REMARKS
HARRISBURG*    MOSUNNY   87  73  62 S9        30.02S HX  94
ROBINSON*      PTSUNNY   85  75  72 W7        29.98R HX  94
$$

ABBREVIATIONS USED IN REMARKS
   TC - TEMPERATURE IN CELSIUS
  WCI - WIND CHILL INDEX
   HX - HEAT INDEX
  VSB - VISIBILITY
$$




USA.gov is the U.S. government's official web portal to all federal, state and local government web resources and services.